Meteo Giornale » Osservazioni meteo Oman » Sohar Majis
ore: 22:50 - Osservazioni Meteo Sohar Majis
Lat. 24° 28' N Lon. 56° 38' E Alt. 4 metri s.l.m.
32 °C
Sereno
Temp. 24 Ore
31 °C
36 °C
Sud
7.4 Km/h
Dew point 28 °C
Umidità 79 %
Visibilità 10 Km
Il sole sorge alle ore 05:54
Il sole tramonta alle ore 18:32
| Data e Ora | Cielo e Fenomeni | T °C | DP °C | Um. % | Pres. hPa | Vis. km | Vento km/h | |
|---|---|---|---|---|---|---|---|---|
| Oggi h: 22:50 | Sereno | 32 | 28 | 79 | 1001 | 10 | S 7.4 | |
| Oggi h: 21:50 | Sereno | 32 | 28 | 79 | 1001 | 10 | SE 7.4 | |
| Oggi h: 20:50 | Sereno | 32 | 28 | 79 | 1001 | 10 | E/SE 11.1 | |
| Oggi h: 19:50 | Foschia | 32 | 29 | 84 | 1000 | 9 | E 14.8 | |
| Oggi h: 18:50 | Sereno | 33 | 28 | 75 | 1000 | 10 | E 13 | |
| Oggi h: 17:50 | Sereno | 34 | 28 | 71 | 1000 | 10 | E 11.1 | |
| Oggi h: 16:50 | Sereno | 35 | 27 | 63 | 999 | 10 | E 13 | |
| Oggi h: 15:50 | Sereno | 36 | 27 | 60 | 999 | 10 | E 16.7 | |
| Oggi h: 14:50 | Sereno | 36 | 26 | 56 | 999 | 10 | E/NE 16.7 | |
| Oggi h: 13:50 | Sereno | 36 | 25 | 53 | 1000 | 10 | E/NE 16.7 | |
| Oggi h: 12:50 | Sereno | 36 | 27 | 60 | 1000 | 10 | E/NE 16.7 | |
| Oggi h: 11:50 | Sereno | 36 | 27 | 60 | 1001 | 10 | E 14.8 | |
| Oggi h: 10:50 | Sereno | 35 | 27 | 63 | 1002 | 10 | E 13 | |
| Oggi h: 09:50 | Sereno | 35 | 27 | 63 | 1002 | 10 | E 14.8 | |
| Oggi h: 08:50 | Sereno | 34 | 26 | 63 | 1002 | 10 | E 13 | |
| Oggi h: 07:50 | Sereno | 33 | 25 | 62 | 1001 | 10 | SE 9.3 | |
| Oggi h: 06:50 | Sereno | 32 | 27 | 74 | 1001 | 10 | S 9.3 | |
| Oggi h: 05:50 | Sereno | 31 | 27 | 79 | 1001 | 10 | S/SE 7.4 | |
| Oggi h: 04:50 | Sereno | 31 | 28 | 84 | 1000 | 10 | N 3.7 | |
| Oggi h: 03:50 | Sereno | 32 | 27 | 74 | 999 | 10 | N/NE 11.1 | |
| Oggi h: 02:50 | Sereno | 33 | 27 | 70 | 999 | 10 | N 3.7 | |
| Oggi h: 01:50 | Sereno | 33 | 26 | 66 | 999 | 10 | N 5.5 | |
| Oggi h: 00:50 | Sereno | 34 | 26 | 63 | 999 | 10 | N 3.7 | |
| Ieri h: 23:50 | Sereno | 34 | 25 | 59 | 999 | 10 | N 3.7 | |



